www.pogodaiklimat.ru

Погода и климат >> Архив погоды >> Россия >> Якутия >> Амга


ПОГОДА в Амге

  • Прогноз погоды в Амге
  • Монитор погоды в Амге
  • Климат города

АРХИВ ПОГОДЫ в Амге

Время (UTC), дата Ветер
(напр.,м/с)
 
Видим.   Явления Облачность Т
(С)
Тd
(С)
f
(%)
Тe
(С)
Тes
(С)
Комфортность P
(гПа)
Po
(гПа)
Тmin
(С)
Tmax
(С)
R
(мм)
R24
(мм)
S
(см)
15 14.10 З 2 20 км 10/10 600 м
[Cb calv]
-3.1 -6.6 77 -7 -7 1031.0 1012.2
18 14.10 СЗ 2 20 км 10/10 600 м
[Cb calv]
-3.5 -6.3 81 -8 -8 1031.2 1012.4
21 14.10 СЗ 1 20 км 10/0
[As op]
-4.3 -8.5 72 -6 -6 1032.0 1013.0
00 15.10 СЗ 1 50 км 10/8 600 м
[Cb calv Ac As]
-4.7 -9.1 71 -7 -7 1023.8 1013.8 -4.7
03 15.10 З 1 50 км слабый ливневой снег 10/8 600 м
[Cb calv Ac As]
-4.6 -7.7 79 -7 -7 1032.6 1013.6
06 15.10 СЗ 2 50 км слабый ливневой снег 10/8 600 м
[Cb calv Ac As]
-4.5 -9.2 70 -8 -8 1032.3 1013.3
09 15.10 С 1 20 км {ливн. осадки} 10/10 600 м
[Cb calv]
-4.9 -8.1 78 -7 -7 1032.7 1013.6
12 15.10 В 1 20 км {ливн. осадки} 10/10 600 м
[Cb calv]
-5.6 -7.8 84 -8 -8 1032.3 1013.2 -4.5 0.0
15 15.10 СВ 3 20 км 10/10 600 м
[Cb calv]
-6.1 -8.0 86 -12 -12 1032.2 1013.1
18 15.10 С 2 20 км 10/10 600 м
[Cb calv]
-6.9 -8.6 88 -11 -11 1031.3 1012.2
21 15.10 С 1 20 км 10/6 600 м
[Cb calv Ac As]
-7.1 -8.4 90 -10 -10 1031.0 1011.9
00 16.10 штиль 0 50 км 10/8 600 м
[Cb calv Ac As]
-6.4 -7.2 94 -7 -7 1030.1 1011.0 -7.1 0.0
03 16.10 штиль 0 50 км {ливн. осадки} 10/10 600 м
[Cb cap]
-5.3 -6.7 90 -6 -6 1028.4 1009.4
06 16.10 ЮЗ 3 50 км {ливн. осадки} 10/10 600 м
[Cb cap]
-4.8 -7.2 83 -10 -10 1026.9 1008.0
09 16.10 20 км слабый ливневой снег 10/10 600 м
[Cb calv]
-5.1 -7.2 85 1026.7 1007.7
12 16.10 ЮВ 3 20 км {ливн. осадки} 10/10 600 м
[Cb calv]
-5.8 -7.6 87 -11 -11 1025.9 1007.0 -2.5 0.0
15 16.10 ЮВ 2 20 км 10/10 600 м
[Cb calv]
-5.2 -7.7 83 -9 -9 1024.9 1006.0
18 16.10 ЮВ 2 20 км 10/10 600 м
[Cb calv]
-5.0 -7.4 83 -9 -9 1024.1 1005.2
21 16.10 ЮЗ 2 20 км 10/10 600 м
[Cb calv]
-6.0 -7.5 89 -10 -10 1023.9 1005.0
00 17.10 штиль 0 50 км 10/8 600 м
[Cb calv Ac trans Ci fib]
-5.1 -7.2 85 -6 -6 1023.1 1004.2 -6.0
03 17.10 ЮЗ 2 50 км 8/3 600 м
[Cb calv Ac trans Ci fib]
-2.3 -7.0 70 -6 -5 1021.6 1003.0
06 17.10 З 2 50 км 4/1 600 м
[Cu med, cong Ac trans Ci fib]
-1.3 -8.0 60 -5 -4 1020.2 1001.7
09 17.10 З 2 20 км 10/8 600 м
[Cb calv Ac trans]
-4.3 -7.0 81 -8 -8 1021.0 1002.3
12 17.10 З 1 20 км 10/10 600 м
[Cb calv]
-4.1 -6.4 84 -6 -6 1020.3 1001.6 -0.7
15 17.10 З 2 20 км слабый ливневой снег 10/10 600 м
[Cb calv]
-4.2 -5.8 89 -8 -8 1019.5 1000.8
18 17.10 ЮЗ 1 10 км слабый ливневой снег 10/10 600 м
[Cb calv]
-4.7 -5.6 93 -7 -7 1018.9 1000.2
21 17.10 штиль 0 20 км {ливн. осадки} 10/10 600 м
[Cb calv]
-5.2 -5.9 95 -6 -6 1019.3 1000.5
00 18.10 штиль 0 50 км {ливн. осадки} 10/10 600 м
[Cb calv]
-5.1 -6.8 88 -6 -6 1019.7 1000.9 -6.1 0.6 1
03 18.10 З 2 50 км 10/10 600 м
[Sc]
-3.8 -6.0 85 -8 -8 1019.4 1000.8
06 18.10 З 3 50 км 10/8 600 м
[Cb calv Ac trans Ci fib]
-2.5 -6.9 72 -7 -7 1019.1 1000.5
09 18.10 СЗ 2 20 км 8/8 600 м
[Cb calv]
-2.9 -8.7 64 -7 -7 1020.0 1001.4
12 18.10 ЮЗ 2 20 км 10/6 600 м
[Cb calv Ac trans Ci fib]
-3.6 -7.9 72 -7 -7 1020.1 1001.5 -2.2
15 18.10 СЗ 2 20 км 6/0
[Ci fib]
-8.9 -10.4 89 -13 -13 1020.8 1001.7
18 18.10 З 2 20 км 6/0
[Ac trans Ci fib]
-13.0 -14.3 90 -18 -18 1021.4 1002.0
21 18.10 ЮЗ 4 20 км 10/0
[Ac trans Ci fib]
-9.0 -10.1 92 -16 -16 1020.8 1001.7
00 19.10 ЮЗ 2 50 км слабый ливневой снег 10/8 600 м
[Cb calv Ac trans]
-7.4 -8.3 93 -12 -12 1020.2 1001.3 -13.2 0.0 <0.5
03 19.10 ЮЗ 1 50 км {ливн. осадки} 10/8 600 м
[Cb calv Ac trans]
-3.5 -6.3 81 -6 -5 1018.1 999.5
06 19.10 штиль 0 50 км {ливн. осадки} 10/8 600 м
[Cb calv Ac trans]
-1.5 -5.9 72 -2 -2 1016.4 997.9
09 19.10 ЮВ 1 20 км 10/8 600 м
[Cb calv Ac trans]
-1.7 -6.9 68 -4 -4 1015.4 997.0
12 19.10 штиль 0 20 км слабый ливневой снег 10/6 600 м
[Cb calv Ac As]
-2.8 -3.5 95 -4 -4 1015.5 997.0 -1.5 0.0
15 19.10 штиль 0 10 км слабый снег {ливн. осадки} 10/0
[Ac As]
-3.0 -3.1 99 -4 -4 1015.3 996.7
18 19.10 штиль 0 10 км слабый снег {ливн. осадки} 10/0
[Ac As]
-4.0 -3.9 100 -5 -5 1015.9 997.3
21 19.10 СЗ 1 20 км {снег} 10/0
[Ac As]
-6.1 -6.5 97 -9 -9 1017.6 998.8
00 20.10 СЗ 1 50 км {снег} 10/0 600 м
[Ac As]
-4.9 -4.9 100 -7 -7 1019.1 1000.3 -7.5 0.2 1
03 20.10 штиль 0 50 км 10/0
[Ac As]
-1.8 -3.3 89 -3 -2 1019.4 1000.9
06 20.10 З 1 50 км {ливн. осадки} 10/6 600 м
[Cb calv Ac trans]
-0.8 -3.3 83 -3 -3 1020.1 1001.6
09 20.10 штиль 0 10 км слабый ливневой снег 10/6 600 м
[Cb calv Ac trans]
-1.9 -3.1 91 -3 -3 1021.4 1002.8
12 20.10 С 1 20 км слабый ливневой снег 10/8 600 м
[Cb calv Ac trans]
-2.4 -3.3 94 -5 -5 1022.0 1003.4 -0.8 0.3
15 20.10 СЗ 2 20 км {ливн. осадки} 10/4 600 м
[Cb calv Ac trans]
-2.9 -3.6 95 -7 -7 1022.7 1004.0
18 20.10 штиль 0 20 км {ливн. осадки} 10/6 600 м
[Cb calv Ac trans]
-4.4 -5.0 96 -6 -6 1023.2 1004.4
21 20.10 штиль 0 20 км {ливн. осадки} 10/6 600 м
[Cb calv Ac trans]
-5.2 -5.9 95 -6 -6 1023.3 1004.4
00 21.10 штиль 0 50 км {ливн. осадки} 10/0
[Ac As]
-4.7 -5.3 96 -6 -6 1023.6 1004.8 -5.9 0.2 2
03 21.10 штиль 0 50 км слабый ливневой снег 10/8 600 м
[Cb calv Ac As]
-2.0 -3.8 87 -3 -3 1023.1 1004.5
06 21.10 штиль 0 50 км {ливн. осадки} 10/6 600 м
[Cb calv Ac As]
-1.8 -7.5 65 -3 -2 1022.2 1003.6
09 21.10 В 1 20 км {ливн. осадки} 10/6 600 м
[Cb calv As op]
-4.0 -7.3 78 -6 -6 1022.4 1003.6

 

Местоположение метеостанции Амга (Якутия, Россия): широта 60.90 долгота 131.90 высота над уровнем моря 146 м.

В архиве по умолчанию представлена погода в Амге за последнюю неделю. Архивные данные за месяц целиком и за предыдущие месяцы, начиная с января 2011 года, Вы можете получить, выбрав интересующий диапазон дат из раскрывающегося списка и нажав кнопку "Ввод!".


*Определитесь, кто Вы:
робот инопланетянин человек

Внимание! Время в таблицах - всемирное. Для получения местного времени необходимо прибавить поправку, которая в Амге равна 9 ч.

Смотрите также архив погоды в соседних городах и на ближайших метеорологических станциях:

Погода в Тегюльте (Якутия, Россия) (114 км)
Погода в Чурапче (Якутия, Россия) (131 км)
Погода в Усть-Мае (Якутия, Россия) (149 км)
Погода в Усть-Миле (Якутия, Россия) (154 км)
Погода в Покровске (Якутия, Россия) (163 км)
Погода в Якутске (Якутия, Россия) (173 км)
Погода в Ытык-Кюёле (Якутия, Россия) (184 км)
Погода в Охотском Перевозе (Якутия, Россия) (220 км)
Погода в Намцах (Якутия, Россия) (236 км)
Погода в Крест-Хальджае (Якутия, Россия) (251 км)

Пояснения к столбцам:

Ветер - указаны скорость ветра в м/с - средняя за 10 мин, порывы в срок и между сроками (в фигурных скобках) и направление, откуда дует ветер: С - северный, СВ - северо-восточный, В - восточный, ЮВ - юго-восточный, Ю - южный, ЮЗ - юго-западный, З - западный, СЗ - северо-западный.
Видимость - горизонтальная дальность видимости в метрах или километрах. При видимости от 1 до 10 км при отсутствии осадков обычно наблюдается дымка, при ухудшении видимости до 1 км и менее - туман. В сухую погоду видимость может ухудшаться дымом, пылью или мглою.
Явления - указаны атмосферные явления, наблюдавшиеся в срок или в последний час перед сроком; фигурными скобками обозначены явления, наблюдавшиеся между сроками (за 1-3 часа до срока); квадратными скобками обозначены град или гололедные отложения с указанием их диаметра в мм.
Облачность - указаны через наклонную черту общая и нижняя облачность в баллах и высота нижней границы облаков в метрах; квадратными скобками обозначены формы облаков: Ci - перистые, Cs - перисто-слоистые, Cc - перисто-кучевые, Ac - высококучевые, As - высокослоистые, Sc - слоисто-кучевые, Ns - слоисто-дождевые, Cu - кучевые, Cb - кучево-дождевые. Подробнее классификацию облаков см. в Атласе облаков (PDF).
T - Температура воздуха - температура, измеренная на высоте 2 м над землей.
Td - Температура точки росы - температура, при понижении до которой содержащийся в воздухе водяной пар достигнет насыщения.
f - Относительная влажность воздуха - влажноcть воздуха, измеренная на высоте 2 м над землей.
Te - Эффективная температура - температура, которую ощущает одетый по сезону человек в тени. Характеристика душности погоды. При расчете учитывается влияние влажности воздуха и скорости ветра на теплоощущения человека.
Tes - Эффективная температура на солнце - температура, которую ощущает человек, с поправкой на солнечный нагрев. Характеристика знойности погоды. Зависит от высоты солнца над горизонтом, облачности и скорости ветра. Ночью, в пасмурную погоду, а также при ветре 12 м/с и более поправка равна нулю.
P - Атмосферное давление - приведенное к уровню моря атмосферное давление.
Po - Атмосферное давление - измеренное на уровне метеостанции атмосферное давление.
Tmin - Минимальная температура - минимум температуры воздуха на высоте 2 м над землей.
Tmax - Максимальная температура - максимум температуры воздуха на высоте 2 м над землей.
R - Количество осадков - Количество выпавших осадков за период времени, мм. При наведении курсора мыши на число - период времени, за который выпало указанное количество осадков.
R24 - Количество осадков - Количество выпавших осадков за 24 часа, мм.
S - Снежный покров - Высота снежного покрова, см. При наведении курсора мыши на число - состояние снежного покрова и степень покрытия местности в баллах.